Location: ?????
(32.7281°N, 34.9563°E)
Time: 23:52:53
(UTC+00:00)

CZ-4B R/B - Pass Details

Date: 12 March 2021
Orbit: 388 x 454 km, 97.6° (Epoch: 22 April)

Event Time Altitude Azimuth Distance (km) Brightness Sun altitude
Rises 02:21:40 0° 133° (SE) 2,304 5.5 -20.3°
Reaches altitude 10° 02:24:13 10° 109° (ESE) 1,439 4.8 -19.7°
Maximum altitude 02:26:05 15° 72° (ENE) 1,164 4.5 -19.4°
Drops below altitude 10° 02:27:56 10° 34° (NE) 1,432 4.5 -19.0°
Sets 02:30:28 0° 10° (N) 2,286 5.2 -18.4°
